Powrót do katalogu

CAS500-1

AktywnyNaukaSSO
NORAD 47932·PAYLOAD·🇰🇷 South Korea

Wystrzelony Mar 22, 2021 z Baikonur Cosmodrome

Loading…

Następne Przeloty (najbliższe 24 godziny)

TLE

ŚwieżeSource: Space-Track

Epoka: Sep 14, 2026, 21:55 UTC

1 47932U 21022A   26257.91361090  .00005586  00000-0  26083-3 0  9999
2 47932  97.3759 151.2832 0004706 354.6758   5.4427 15.20207170304390

Śledź CAS500-1 w czasie rzeczywistym z AllMySat

Download on the App Store